Location: Newark
(44.4156°N, 12.1972°E)
Time: 10:21:17
(UTC+00:00)

STARLINK-1085 - Pass Details

Date: 28 January 2020
Orbit: 349 x 350 km, 53.0° (Epoch: 18 February)

Event Time Altitude Azimuth Distance (km) Brightness Sun altitude
Rises 17:17:05 0° 306° (NW) 2,166 7.3 -11.4°
Reaches altitude 10° 17:19:22 10° 323° (NW) 1,322 5.9 -11.8°
Maximum altitude 17:21:46 22° 17° (NNE) 831 4.3 -12.2°
Enters shadow 17:22:37 19° 44° (NE) 907 4.3 -12.4°
